GFSNE_prec_cthk_024.txt.gz
RH
60 67 71 72 74 75 68 71 70 59 51 53 56 58 56 51 47 41 38 38 44 44 41 38 37 40 35 30 25 31 35 33 34 38 36 33 34 51
62 66 75 76 77 70 65 70 70 75 64 59 53 54 55 49 42 38 42 48 46 45 46 47 48 48 40 33 30 31 41 38 35 33 38 44 43 53
61 62 73 77 72 64 71 72 72 72 55 48 45 47 45 39 38 43 51 52 51 57 60 55 54 53 51 45 43 33 42 43 40 37 40 47 56 53
52 54 62 67 67 74 71 64 54 44 44 40 41 41 41 40 47 57 61 62 63 64 60 63 62 69 70 62 58 43 41 47 43 41 46 51 57 57
51 52 60 68 71 66 53 41 37 36 40 46 42 40 45 52 59 68 66 65 69 73 73 73 73 72 74 75 65 55 44 46 48 47 47 63 61 66
55 59 62 60 52 43 38 35 36 43 43 43 44 46 52 61 67 65 64 75 71 73 66 62 70 78 79 76 66 58 48 44 53 50 47 63 63 68
51 54 54 46 42 38 39 41 45 44 43 44 47 52 61 71 71 72 82 79 74 67 63 66 77 82 89 78 77 74 62 54 57 56 47 66 70 55
46 46 46 44 43 45 49 47 44 42 45 54 57 66 76 79 78 87 82 78 64 65 67 63 77 87 97 92 89 84 77 55 57 60 52 80 76 70
42 41 44 48 47 51 46 42 36 44 55 60 67 79 80 78 84 80 80 65 61 67 75 65 78 83 97 93 85 76 68 50 57 64 59 71 68 74
40 43 47 52 49 43 38 34 33 39 52 65 72 72 70 83 83 82 72 61 66 68 72 67 78 78 85 85 77 72 74 49 59 71 71 67 61 74
44 47 52 55 43 42 38 34 34 38 49 61 62 63 81 86 85 87 70 71 73 76 79 79 81 83 79 76 73 69 69 48 63 80 90 85 74 65
47 50 51 47 45 42 37 35 35 39 42 56 68 79 87 86 86 89 76 77 84 85 84 90 90 91 84 80 78 77 77 52 65 86 98 96 90 82
49 52 52 44 42 37 36 38 40 42 47 52 66 84 90 87 85 87 79 77 89 89 87 94 90 89 88 94 93 94 84 64 74 94 99 98 93 94
51 52 48 43 38 35 36 39 43 46 50 55 60 83 91 89 87 89 85 80 85 85 86 95 89 87 87 96 99 99 86 66 77 97 98 98 96 98
55 54 46 42 37 36 36 39 40 42 50 54 60 70 92 92 88 87 92 78 83 82 86 87 91 88 85 89 92 94 88 70 87 97 99 99 98 99
59 56 48 44 41 39 40 40 40 41 44 51 58 65 80 94 91 89 92 90 83 85 91 93 90 81 85 83 86 86 82 73 84 93 98 99 99 99
64 62 52 47 46 42 41 42 40 38 39 42 49 61 70 80 94 93 91 95 93 89 88 89 90 87 85 77 71 69 66 60 81 87 90 97 98 98
63 61 55 49 51 47 44 47 45 40 34 35 42 51 63 74 80 97 95 93 95 95 91 89 89 90 88 83 74 71 66 56 67 82 83 90 94 95
63 61 59 54 57 52 50 51 52 47 37 33 36 43 52 63 82 77 96 93 93 96 96 96 91 88 87 88 86 75 68 64 58 63 66 72 77 76
65 62 59 58 61 61 56 56 53 54 47 38 37 39 46 53 65 86 72 92 93 96 97 98 96 90 88 88 86 78 76 72 66 61 67 65 66 65
68 64 64 66 66 68 67 61 59 60 56 45 39 39 43 49 56 67 89 73 79 90 92 95 96 96 95 93 90 87 82 76 77 70 67 66 68 68
77 75 73 74 74 73 71 70 68 67 63 56 45 40 41 47 52 57 68 89 73 70 78 90 95 98 98 99 99 96 88 86 82 77 75 74 69 67
93 86 82 81 79 77 75 71 70 72 74 66 53 43 41 42 50 55 59 66 89 73 55 84 97 93 94 95 94 92 89 89 91 88 86 86 82 81

GFSNE_prec_cthk_027.txt.gz
RH
53 54 60 61 63 66 68 72 74 67 48 51 52 56 50 48 47 42 40 39 34 29 32 34 36 40 43 45 46 44 36 33 30 30 26 30 40 41
56 57 58 57 62 64 66 69 71 67 64 60 51 42 41 40 40 41 37 32 30 35 39 42 45 47 48 46 43 43 36 32 27 31 32 29 30 32
62 55 50 50 54 59 61 68 70 74 65 49 35 31 32 35 35 33 33 36 40 46 49 50 51 53 52 50 51 54 44 39 32 33 37 33 28 29
68 58 54 52 52 55 61 63 62 59 36 31 29 33 35 34 35 36 38 44 48 52 55 54 59 62 61 58 60 61 59 53 38 36 39 36 32 29
67 56 48 54 57 53 50 51 41 35 35 37 37 35 36 36 40 43 47 51 50 53 57 61 65 61 66 65 68 70 67 61 51 38 39 41 36 30
59 50 47 48 47 43 40 39 37 41 42 39 35 36 40 44 50 56 57 57 58 65 65 69 70 63 64 65 69 75 72 66 56 47 39 42 41 34
48 41 43 41 38 38 36 40 46 44 39 34 39 43 47 53 61 63 63 64 65 63 61 59 56 50 54 65 78 76 72 70 65 59 44 40 42 39
35 37 38 37 38 37 41 48 45 41 34 38 44 49 56 64 62 63 71 68 60 59 53 42 53 50 56 71 88 85 86 86 76 66 50 41 45 43
44 40 38 41 42 45 48 44 40 37 35 39 44 53 61 65 63 72 72 71 67 52 52 51 54 52 60 79 88 90 82 83 75 69 50 44 52 55
51 41 43 44 46 47 43 40 39 38 38 40 46 49 56 59 76 81 77 74 66 59 62 61 60 58 63 74 79 82 76 73 70 63 46 49 61 63
51 46 46 48 49 44 42 40 36 37 40 42 45 49 60 75 83 85 80 77 63 65 67 74 72 72 71 74 76 80 75 68 66 57 46 67 77 75
51 48 50 49 48 45 41 35 34 36 39 43 45 48 63 80 86 85 81 77 69 68 82 82 78 83 78 81 86 79 68 66 69 56 64 84 88 86
58 53 49 50 45 43 38 36 36 35 37 41 47 49 61 78 86 86 84 83 72 73 82 85 81 84 87 82 94 98 97 84 77 63 90 93 95 90
64 58 53 52 46 43 40 38 38 37 36 38 44 52 55 75 86 87 85 84 83 80 84 85 83 86 85 88 96 96 99 94 72 88 98 95 97 91
72 62 59 54 48 45 41 40 39 38 33 34 40 46 58 62 86 88 86 85 87 80 82 86 89 88 84 85 90 97 98 91 80 96 98 98 98 96
82 66 62 61 52 47 44 43 42 43 38 34 34 39 46 60 68 91 90 84 87 87 87 85 93 96 85 75 84 88 94 82 79 96 98 99 99 99
82 71 63 62 58 50 49 49 46 48 47 39 34 34 41 50 61 82 94 91 88 91 90 84 87 96 92 80 77 78 83 78 79 96 98 99 99 99
80 69 64 64 61 55 53 52 51 51 53 50 40 35 37 44 53 72 79 93 91 93 94 92 85 87 94 94 80 72 73 68 71 87 95 99 98 98
79 70 64 65 62 58 57 58 55 57 57 59 46 39 37 41 48 57 81 78 93 95 97 96 93 84 85 95 93 82 74 72 66 78 90 93 98 98
81 72 68 66 65 62 60 64 62 62 63 63 53 45 40 39 44 52 63 87 76 89 94 96 96 93 85 88 91 92 79 75 70 76 78 79 82 87
87 82 74 71 70 69 70 71 68 68 69 70 65 51 43 40 41 48 54 72 86 71 78 89 97 97 95 90 89 85 83 80 76 76 80 80 77 77
92 90 87 80 78 78 79 78 75 72 70 71 74 63 49 42 39 44 51 58 81 79 63 90 97 99 99 98 95 88 86 79 76 75 75 81 80 79
98 95 97 96 89 85 85 83 82 79 74 69 72 75 56 45 39 41 48 54 60 79 74 65 99 99 98 99 99 97 96 88 86 82 79 74 75 79

GFSNE_prec_cthk_030.txt.gz
RH
57 62 63 63 60 67 76 71 66 58 51 48 55 50 50 47 39 34 34 34 32 31 29 30 35 38 42 43 42 42 43 41 39 39 37 40 38 27
64 65 66 66 66 69 60 62 61 62 62 57 54 50 42 27 25 25 27 30 30 31 32 34 36 38 42 44 44 42 40 40 43 38 34 31 30 26
72 69 72 72 68 60 58 54 57 61 62 56 47 35 27 25 27 30 31 31 31 33 36 40 42 45 45 47 48 46 43 43 49 47 37 33 29 27
76 80 76 71 60 58 54 56 56 55 48 39 30 31 32 32 32 32 32 34 38 40 42 43 43 43 46 50 51 51 48 48 50 47 41 31 29 28
78 74 67 64 57 51 50 48 40 40 40 38 36 37 31 31 34 38 41 44 45 47 46 45 49 53 56 57 55 54 54 56 57 54 50 41 31 28
71 67 54 45 44 44 44 38 39 40 43 41 36 30 30 35 42 46 44 46 46 53 54 57 57 56 61 61 55 56 63 67 68 64 59 49 39 31
55 46 44 41 41 39 38 40 42 46 42 36 31 29 33 39 48 52 51 50 60 59 58 59 55 50 49 49 42 48 62 67 70 69 65 58 47 35
43 46 49 46 39 39 42 43 48 42 37 33 31 32 37 43 49 53 53 62 66 64 64 55 51 44 44 46 42 52 73 75 74 68 67 61 48 39
47 51 56 48 42 43 44 49 45 42 37 34 33 37 39 43 45 57 70 72 71 65 62 52 52 48 48 45 45 56 78 79 73 71 63 54 47 39
52 57 57 48 46 47 48 45 42 38 34 34 36 38 41 44 53 69 76 76 70 69 69 56 61 56 55 56 61 64 76 83 75 68 57 48 41 40
55 57 50 48 49 49 47 43 37 33 33 35 37 40 41 48 61 72 79 77 71 66 72 66 67 66 63 67 74 70 78 75 71 62 57 47 44 51
57 56 57 55 52 50 47 41 35 34 34 34 37 41 43 46 60 74 81 83 80 69 72 66 70 76 71 70 77 75 74 73 70 63 57 52 55 70
62 65 63 61 54 53 46 40 37 37 37 35 34 37 42 48 53 74 84 87 83 79 79 76 79 83 81 74 73 85 93 88 71 63 64 61 75 83
67 74 75 71 61 55 48 43 42 41 39 37 35 35 38 43 49 61 83 88 87 81 82 79 80 88 86 79 84 93 98 97 89 86 77 90 91 93
73 78 84 82 67 63 55 46 44 44 43 42 42 37 37 38 44 52 77 90 87 86 93 86 80 90 91 82 81 83 91 97 94 94 98 98 98 98
76 78 85 88 71 66 61 50 48 48 50 49 48 46 40 37 40 47 63 87 88 86 94 91 82 89 95 77 76 79 85 91 85 95 98 98 98 98
79 80 87 88 74 67 64 55 52 52 53 56 54 55 46 38 39 44 56 71 86 88 88 91 87 86 94 88 76 75 77 81 82 94 98 99 99 99
77 82 88 88 74 66 64 60 57 56 56 58 61 59 50 42 39 43 49 63 77 90 91 91 91 83 89 94 88 71 72 77 79 89 98 99 99 99
75 85 89 87 75 68 66 64 58 58 60 62 66 67 52 45 42 42 47 55 78 77 90 93 93 89 82 91 92 85 79 77 72 83 94 96 98 98
81 88 93 88 79 72 69 67 65 66 66 66 70 73 62 49 44 42 46 52 67 78 70 80 92 94 87 87 94 92 82 77 73 74 85 90 93 92
84 90 95 93 88 79 74 72 70 71 71 72 72 74 74 55 46 41 44 50 56 79 65 78 95 98 97 87 89 91 89 84 79 78 79 81 83 84
86 90 95 97 96 91 82 80 80 81 80 79 76 73 76 66 49 42 42 47 55 62 75 76 98 98 99 99 92 89 90 89 84 77 80 81 82 83
91 92 94 99 98 98 95 88 87 83 83 85 82 76 73 75 56 45 42 44 52 57 66 73 86 99 97 99 99 98 91 90 86 81 77 81 78 78

GFSNE_prec_cthk_033.txt.gz
RH
68 68 65 67 71 74 71 73 72 68 69 70 66 63 60 55 49 38 26 22 21 21 22 24 31 32 37 39 39 40 41 41 39 41 38 40 38 39
65 63 64 66 69 70 70 73 69 70 60 53 51 49 45 38 28 26 24 25 27 29 31 32 32 35 39 39 39 42 42 41 41 40 40 40 44 38
64 64 63 72 72 69 69 63 57 55 51 41 39 35 29 28 28 30 31 31 32 32 32 33 36 33 34 36 39 41 40 41 39 38 35 48 46 43
68 69 66 65 66 63 51 47 47 47 46 36 32 31 32 33 29 30 32 33 34 36 37 36 34 35 37 41 46 46 44 40 37 35 35 39 49 43
65 61 57 53 45 40 41 43 43 42 41 38 37 38 33 30 29 30 32 35 37 36 35 38 42 45 46 47 52 53 50 47 42 42 42 43 42 40
53 48 42 36 39 40 41 41 39 40 42 44 41 34 32 31 32 34 32 38 37 41 48 52 55 52 52 49 50 53 53 48 44 48 54 55 51 46
42 38 37 37 40 43 43 39 40 43 44 43 38 34 31 32 35 36 37 36 46 54 56 58 56 53 50 44 41 44 44 42 45 54 60 67 64 56
41 44 44 43 47 51 46 42 44 45 45 43 38 33 31 34 34 37 40 48 56 61 61 59 59 56 50 46 41 41 39 37 44 57 59 64 67 61
43 43 44 48 51 49 45 47 47 47 45 42 35 34 33 34 34 37 47 57 65 64 64 61 63 58 59 51 48 51 46 41 49 66 63 62 59 57
45 45 47 48 46 45 49 50 49 46 45 37 35 35 35 33 35 41 51 60 66 67 69 64 66 60 58 54 54 61 60 56 58 66 68 69 59 48
46 47 49 47 50 48 52 49 49 45 40 38 37 37 36 35 38 37 48 61 67 70 71 72 71 63 60 56 59 71 67 64 62 64 70 72 60 45
49 50 53 52 58 55 56 52 50 45 41 39 39 39 40 38 38 40 44 62 73 74 76 75 71 74 61 67 68 71 68 73 65 67 67 67 61 49
54 55 57 60 67 70 64 57 53 48 43 43 42 39 41 39 38 39 41 51 74 82 82 86 79 78 74 75 71 70 76 86 90 77 70 67 58 55
60 61 62 66 73 77 76 64 62 52 46 45 47 46 43 44 41 38 43 46 70 86 86 91 89 87 79 85 79 75 87 96 97 92 79 70 69 73
57 66 70 74 79 82 84 75 68 59 51 47 47 50 52 49 47 40 40 46 58 83 91 92 93 91 84 94 82 75 80 86 94 91 96 95 92 93
56 66 71 78 85 87 88 83 71 65 55 50 49 52 55 52 51 44 38 42 53 64 90 94 95 95 84 96 86 73 77 83 88 93 98 98 98 98
63 65 73 86 88 91 92 88 74 70 58 54 53 56 60 57 51 47 41 41 49 62 78 92 93 95 87 93 91 76 74 78 88 90 98 99 99 99
63 65 75 85 89 93 95 88 75 70 62 57 57 60 64 64 54 48 42 41 45 60 75 86 91 92 88 90 90 83 72 75 85 87 98 99 99 99
62 65 76 87 90 95 96 85 72 70 68 63 63 64 66 70 61 50 43 39 46 54 74 70 82 93 91 85 92 88 81 84 89 87 97 98 98 98
63 67 77 87 91 96 98 90 76 72 70 67 68 69 69 72 72 54 45 39 44 51 66 67 85 95 97 86 91 89 84 86 81 78 86 90 94 94
69 64 70 86 92 96 98 96 83 76 72 71 74 75 74 73 74 60 48 41 43 51 59 74 95 100 99 94 90 92 89 89 84 79 77 82 86 87
74 68 75 84 92 96 99 98 94 82 78 77 80 81 81 75 74 69 51 42 43 50 55 68 91 99 99 99 92 92 92 94 89 82 81 81 82 87
78 74 79 89 95 98 98 98 98 91 87 87 83 83 85 80 75 76 57 45 44 45 53 60 76 98 99 99 99 95 95 94 89 88 82 85 85 86

GFSNE_prec_cthk_036.txt.gz
RH
65 64 63 64 67 66 59 59 64 55 47 45 49 52 52 52 47 37 28 23 22 23 24 25 25 31 30 34 38 38 38 37 38 41 40 38 36 37
71 69 69 66 61 58 52 46 40 40 36 36 41 44 42 38 32 30 28 28 28 29 29 30 32 36 37 37 35 33 33 38 39 39 41 41 38 38
70 68 64 50 40 32 30 33 34 35 35 33 36 38 37 36 35 33 30 29 29 30 32 35 35 36 35 34 35 34 32 35 42 41 41 41 39 40
72 65 49 31 25 30 30 31 33 37 38 34 35 35 36 37 33 30 30 30 32 34 36 35 33 35 37 38 36 35 33 40 42 43 43 35 35 35
68 48 34 30 30 30 31 36 39 39 39 36 36 38 37 33 30 29 30 32 34 35 36 38 44 46 45 44 41 40 40 43 43 43 42 39 35 37
46 31 31 33 33 35 38 42 42 42 39 40 41 40 34 31 30 30 29 32 33 39 44 49 51 50 48 46 43 41 38 38 43 45 43 42 39 46
31 31 35 38 40 41 44 46 46 42 41 43 44 38 35 31 32 32 32 30 34 46 48 53 53 54 53 51 45 43 40 37 37 37 36 38 44 50
29 34 38 41 44 46 49 46 40 40 44 46 42 38 34 34 34 33 32 34 39 51 51 53 56 56 57 54 52 47 43 41 37 34 32 34 49 55
32 38 42 46 50 52 48 42 40 44 46 46 42 37 35 37 36 33 33 36 44 55 56 55 57 57 62 59 53 48 45 50 52 47 40 41 55 60
35 42 47 53 57 56 49 45 43 48 49 47 41 38 38 38 40 41 38 33 38 54 63 60 61 61 61 62 53 46 49 54 54 52 47 48 58 61
41 48 57 62 63 59 54 52 52 52 54 48 44 41 42 43 44 45 43 37 33 47 65 66 67 64 63 61 61 52 58 60 56 55 52 49 52 57
48 58 66 64 64 63 60 62 65 62 59 52 49 46 45 45 46 46 47 44 39 39 64 70 73 77 64 62 70 62 61 59 65 72 69 61 55 57
54 57 62 65 66 67 66 70 74 75 67 59 55 49 47 47 46 48 49 49 42 41 58 73 77 81 82 75 69 71 68 64 72 84 85 80 65 64
57 57 55 60 70 70 74 78 83 83 80 67 60 53 51 52 49 48 48 51 45 42 50 75 82 86 84 80 79 77 67 74 81 93 93 93 76 64
51 50 52 54 60 75 78 83 87 88 89 73 65 57 54 53 53 51 50 52 44 43 44 64 87 90 91 89 83 85 69 69 80 90 94 98 94 81
52 51 50 54 59 73 80 87 90 92 94 81 70 61 58 56 57 56 52 53 42 40 46 56 83 90 89 90 88 87 74 74 79 89 98 99 98 98
69 63 48 47 63 67 77 92 94 94 95 86 73 64 59 59 61 61 56 54 45 37 42 54 71 87 89 85 89 87 78 73 80 81 98 98 99 98
76 66 53 49 60 69 81 90 93 96 97 86 74 68 63 63 65 67 59 55 47 39 42 56 65 75 89 88 88 89 85 78 80 82 98 97 98 99
77 69 53 56 61 78 84 91 94 97 96 82 73 71 68 68 68 70 65 57 50 41 44 53 71 81 91 91 87 90 87 83 85 88 96 98 98 98
65 60 62 67 72 65 78 91 93 97 97 83 73 73 71 72 72 72 69 60 50 42 45 52 80 96 97 96 89 92 91 92 85 89 88 91 97 97
67 70 72 77 76 67 72 88 95 98 99 91 77 75 76 78 76 74 72 63 52 43 45 48 78 98 98 98 90 92 92 97 87 84 85 85 88 90
66 77 81 82 79 73 79 89 95 99 99 97 82 77 80 82 79 78 74 67 55 44 44 48 67 96 99 98 98 92 92 94 92 83 80 84 86 93
74 79 85 85 79 76 84 91 97 99 99 98 89 85 87 83 81 81 76 73 58 46 44 45 56 86 98 99 99 98 91 91 88 87 81 77 82 88